TimeCDT,TemperatureF,Dew PointF,Humidity,Sea Level PressureIn,VisibilityMPH,Wind Direction,Wind SpeedMPH,Gust SpeedMPH,PrecipitationIn,Events,Conditions,WindDirDegrees,DateUTC
12:53 AM,59.0,51.1,75,30.17,10.0,NE,5.8,-,N/A,,Clear,50,2013-08-14 05:53:00
1:53 AM,55.9,48.9,77,30.18,10.0,Calm,Calm,-,N/A,,Clear,0,2013-08-14 06:53:00
2:53 AM,52.0,48.0,86,30.18,10.0,Calm,Calm,-,N/A,,Clear,0,2013-08-14 07:53:00
3:53 AM,48.9,46.9,93,30.19,10.0,Calm,Calm,-,N/A,,Clear,0,2013-08-14 08:53:00
4:53 AM,51.1,48.0,89,30.20,10.0,Calm,Calm,-,N/A,,Clear,0,2013-08-14 09:53:00
5:53 AM,48.9,46.9,93,30.20,10.0,Calm,Calm,-,N/A,,Clear,0,2013-08-14 10:53:00
6:53 AM,53.1,48.9,86,30.20,10.0,Calm,Calm,-,N/A,,Clear,0,2013-08-14 11:53:00
7:53 AM,57.9,52.0,81,30.22,10.0,Calm,Calm,-,N/A,,Clear,0,2013-08-14 12:53:00
8:53 AM,64.0,52.0,65,30.23,10.0,Calm,Calm,-,N/A,,Clear,0,2013-08-14 13:53:00
9:53 AM,66.9,52.0,59,30.23,10.0,SSW,3.5,-,N/A,,Clear,210,2013-08-14 14:53:00
10:53 AM,69.1,50.0,51,30.23,10.0,Calm,Calm,-,N/A,,Clear,0,2013-08-14 15:53:00
11:53 AM,69.1,46.9,45,30.23,10.0,SSE,4.6,-,N/A,,Partly Cloudy,160,2013-08-14 16:53:00
12:53 PM,73.0,46.9,39,30.22,10.0,Variable,3.5,-,N/A,,Mostly Cloudy,0,2013-08-14 17:53:00
1:53 PM,73.0,46.0,38,30.19,10.0,Calm,Calm,-,N/A,,Partly Cloudy,0,2013-08-14 18:53:00
2:53 PM,73.9,46.9,38,30.19,10.0,Variable,4.6,-,N/A,,Mostly Cloudy,0,2013-08-14 19:53:00
3:53 PM,73.0,48.0,41,30.17,10.0,SE,3.5,-,N/A,,Mostly Cloudy,130,2013-08-14 20:53:00
4:53 PM,73.0,46.0,38,30.15,10.0,South,4.6,-,N/A,,Clear,180,2013-08-14 21:53:00
5:53 PM,71.1,52.0,51,30.14,10.0,North,-9999.0,-,N/A,,Clear,0,2013-08-14 22:53:00
6:53 PM,69.1,50.0,51,30.14,10.0,South,4.6,-,N/A,,Clear,170,2013-08-14 23:53:00
7:53 PM,66.0,52.0,60,30.14,8.0,SSE,3.5,-,N/A,,Clear,150,2013-08-15 00:53:00
8:53 PM,62.1,54.0,75,30.14,10.0,Calm,Calm,-,N/A,,Clear,0,2013-08-15 01:53:00
9:53 PM,63.0,51.1,65,30.15,10.0,Calm,Calm,-,N/A,,Clear,0,2013-08-15 02:53:00
10:53 PM,63.0,51.1,65,30.16,10.0,Calm,Calm,-,N/A,,Clear,0,2013-08-15 03:53:00
11:53 PM,61.0,51.1,70,30.15,10.0,SE,3.5,-,N/A,,Clear,140,2013-08-15 04:53:00